7 * 24
多渠道服务支持
CENTAURI-8是美国于2025年1月14日08:00发射的人造卫星,截至2026年3月,该卫星已在轨运行超一年。作为CENTAURI系列的第八颗成员卫星,它延续了该系列的技术设计思路,依托美国航天发射能力进入预定轨道。目前公开信息暂未披露其具体任务定位,推测它大概率承担通信技术验证、空间环境监测或商业航天相关实验任务,是美国商业航天布局中微小卫星领域的一次实践探索。
澳大利亚
(AU)
| 数据来源 | 国际轨道数据 |
| 星历时间: | 2026-09-04T23:29:02+0800 14小时前 查看轨道信息 |
| 半长轴: | 6950.551km |
| 偏心率: | 0.0001196 |
| 轨道倾角: | 97.701° |
| 近地点辐角 | 143.963° |
| 升交点赤经 | 326.706° |
| 平近点角 | 216.167° |
| 近地点: | 571.582km |
| 远地点: | 573.246km |
| 周期: | 96.114分钟 |
| 每日圈数: | 14.982143 |
| 事件ID | 空间交会对象 | 最接近时刻(TCA) | 交会距离 | 交会风险概率(CRP) | 交会风险指数(CRI) | 操作 |
|---|---|---|---|---|---|---|
| CDM_260905-222505-646006-271423 |
STARLINK-6047
(56460)
CENTAURI-8
(62714) | 2026-09-05T 22:25:56+0000 |
1.900 km
极远距离 | 2.591189E-6 低风险 | 0.43 | |
| CDM_260906-172906-271406-683621 |
CENTAURI-8
(62714)
STARLINK-35838
(66836) | 2026-09-06T 17:29:09+0000 |
2.164 km
极远距离 | 1.970822E-6 低风险 | 0.41 | |
| CDM_260907-141405-596206-271421 |
STARLINK-5906
(55962)
CENTAURI-8
(62714) | 2026-09-07T 14:14:07+0000 |
2.806 km
极远距离 | 1.466884E-6 低风险 | 0.38 |